Content
SEND FEEDBACK

Daily
Averages
Monthly
Summary
United States of America

NEW YORK - CENTRAL PARK, NEW YORK


Home > North America > United States > New York
Elevation: 14 feet     Latitude: 40 47N     Longitude: 073 58W

WEATHER
 
SELECT A DAY
Number of Records: 148,192;   Date Range: 11/1/95 - 8/28/14
 
SHARE

PRINT THIS DATA

[ ← Previous Day ]
WEATHER ALMANAC - MARCH 24, 2014
[ Next Day → ]
[ °C ]   °F
Weather ElementAverageHighLow
Temperature27.8 °F34 °F (3:51 pm)21 °F (6:51 am)
Dewpoint2.4 °F3.9 °F (1:51 am) (7:00 pm)
Humidity34.7 %46 % (6:51 am)24 % (4:51 pm)
Barometer30.18 in30.24 in (7:51 am)30.11 in (4:51 pm)
Wind Speed6.8 mph11.5 mph (4:51 am)
Wind Gust19.6 mph (3:51 am)
Weather ElementAverage
Visibility10 mi
Wind DirectionSSE (165.7 °)

Weather ElementTotal
Precipitation---
Heating Degree Days37.5 (Base 65)
Averaged from 23 records on March 24, 2014
WEATHER CONDITIONS BREAKOUT
WIND DIRECTION BREAKOUT
WEATHER BY HOUR - MARCH 24, 2014
[ °C ]   °F
Local TimeTemperatureDewpointHumidityBarometerVisibilityWind DirectionWind SpeedGust SpeedPrecipitationEventsConditions
1:51 AM25.0 °F3.9 °F41 %30.16 in10.0 miVariable6.9 mphClear
2:51 AM23.0 °F3.0 °F42 %30.17 in10.0 miNorth (360°)9.2 mph17.3 mphClear
3:51 AM23.0 °F1.9 °F40 %30.18 in10.0 miNorth (350°)10.4 mph19.6 mphClear
4:51 AM21.9 °F1.9 °F42 %30.19 in10.0 miNorth (360°)11.5 mph17.3 mphClear
5:51 AM21.9 °F3.0 °F44 %30.21 in10.0 miVariable3.5 mphClear
6:51 AM21.0 °F3.0 °F46 %30.22 in10.0 miWNW (300°)8.1 mphClear
7:51 AM21.9 °F3.9 °F46 %30.24 in10.0 miWNW (300°)6.9 mphClear
8:51 AM24.1 °F3.9 °F42 %30.24 in10.0 miNorth (10°)8.1 mph18.4 mphClear
9:51 AM25.0 °F3.0 °F39 %30.24 in10.0 miNorth (350°)5.8 mphScattered Clouds
10:51 AM26.1 °F3.0 °F37 %30.23 in10.0 miNW (320°)4.6 mphScattered Clouds
11:51 AM28.9 °F1.9 °F32 %30.22 in10.0 miVariable4.6 mphScattered Clouds
12:51 PM30.9 °F1.0 °F28 %30.19 in10.0 miVariable5.8 mphPartly Cloudy
1:51 PM32.0 °F1.0 °F27 %30.17 in10.0 miWSW (250°)4.6 mphPartly Cloudy
2:51 PM33.1 °F1.0 °F26 %30.14 in10.0 miNW (310°)11.5 mphClear
3:51 PM34.0 °F1.0 °F25 %30.12 in10.0 miVariable6.9 mph17.3 mphClear
4:51 PM33.1 °F0.0 °F24 %30.11 in10.0 miVariable3.5 mphClear
5:51 PM33.1 °F1.9 °F27 %30.12 in10.0 miNorthClear
6:51 PM32.0 °F1.9 °F28 %30.13 in10.0 miWNW (290°)8.1 mphClear
7:51 PM30.9 °F3.0 °F31 %30.14 in10.0 miVariable3.5 mphClear
8:51 PM30.9 °F3.0 °F31 %30.16 in10.0 miVariable6.9 mphClear
9:51 PM30.0 °F3.0 °F32 %30.17 in10.0 miWNW (300°)8.1 mphClear
10:51 PM28.9 °F3.0 °F33 %30.17 in10.0 miNW (310°)5.8 mphClear
11:51 PM28.9 °F3.9 °F35 %30.17 in10.0 miVariable4.6 mphClear
Hourly data recorded from KNYC, located miles away from New York - Central Park, New York







STORIES FROM OUR PARTNERS